Wind_Speed
23 20 17 16 17 18 17 17 19 19 20 17 15 15 16 16 17 17 15 14 13 13 14 16 15 13 11 10 10 10 8 5 3 3 5 2 4 6 5 7 12 10 10
29 28 26 22 22 22 20 18 17 18 19 21 19 18 19 20 19 19 16 14 11 12 14 16 15 13 11 11 11 10 8 8 7 4 5 3 2 2 3 9 12 8 9
31 32 31 30 28 26 25 21 19 19 20 21 22 22 22 22 22 22 18 14 11 12 13 13 15 13 11 12 12 12 7 4 3 1 2 4 5 2 5 9 9 7 8
22 21 24 28 29 30 27 27 23 22 22 22 22 22 25 24 24 22 18 16 12 13 14 12 14 12 10 10 11 10 8 6 4 3 1 4 4 1 3 7 7 8 9
15 19 22 26 24 25 28 28 27 26 24 21 21 22 23 23 22 21 20 17 14 12 13 13 12 10 8 8 9 8 8 8 6 3 1 5 6 1 2 5 5 9 12
26 24 19 18 23 26 26 27 26 26 25 24 23 22 22 22 20 20 20 19 16 14 14 11 11 8 6 6 8 8 8 8 5 2 2 6 5 2 1 5 5 4 8
15 9 11 17 22 27 26 26 23 23 24 24 24 24 24 22 18 19 20 20 17 16 15 10 10 7 3 4 6 7 9 9 5 2 3 7 6 2 1 5 4 6 11
21 21 21 16 17 18 21 23 24 23 21 21 20 21 21 17 16 16 18 18 18 16 15 11 9 8 4 2 3 6 9 12 8 6 9 10 6 3 2 3 3 6 12
18 19 16 19 15 16 29 21 24 24 25 21 21 18 17 14 13 16 19 18 17 16 14 12 10 10 7 2 0 4 7 12 13 7 9 9 6 3 3 3 5 7 10
19 19 21 21 19 18 23 23 26 26 25 22 22 19 18 15 14 16 16 17 16 17 16 14 11 10 9 6 2 2 6 10 12 10 8 8 7 3 4 7 5 4 10
16 21 25 24 20 18 24 62 22 19 18 18 18 17 17 15 14 15 15 14 13 15 17 15 12 12 9 9 6 2 2 6 10 10 9 7 5 4 3 3 6 6 2
9 8 11 14 21 23 26 22 21 18 17 17 19 18 15 14 15 13 13 14 12 13 13 13 10 12 10 12 10 7 4 1 7 9 7 5 4 4 5 4 5 7 5
7 7 8 8 12 18 17 20 16 23 17 17 17 13 12 12 12 10 12 14 12 12 12 10 10 13 11 14 11 11 9 4 2 6 7 5 5 5 6 6 5 5 9
9 8 7 8 10 13 13 11 13 16 17 14 9 10 11 12 12 12 12 13 13 12 13 12 14 15 16 15 16 15 13 7 2 1 4 4 6 6 6 5 6 8 8
11 10 9 8 9 10 8 8 9 7 7 7 8 7 10 11 13 14 13 13 13 14 15 17 20 22 23 23 21 17 15 13 9 5 1 2 5 7 7 4 4 7 8
12 10 9 8 6 7 11 10 6 5 7 6 7 7 8 11 12 14 15 16 18 18 19 23 23 24 25 26 25 22 20 16 11 9 6 3 3 5 6 7 5 5 7
10 8 9 9 7 8 6 7 7 6 4 5 6 8 12 13 16 17 18 20 21 22 23 24 24 24 25 26 25 24 21 17 12 11 11 7 4 5 5 5 6 7 11
10 10 9 10 10 8 7 6 5 6 6 3 5 7 8 8 9 11 12 13 16 20 24 24 24 24 25 25 26 24 23 21 16 14 15 12 8 5 6 7 7 6 8
10 10 10 8 7 9 9 10 9 9 6 8 9 11 4 2 3 2 7 8 7 13 19 22 27 22 21 23 25 23 25 25 21 18 17 16 13 9 7 8 8 7 7
11 11 12 10 8 8 8 12 13 12 11 10 11 7 2 2 3 3 5 4 4 7 10 13 14 15 17 19 21 25 25 25 24 22 20 18 17 14 10 8 8 8 9
11 12 13 13 11 10 10 10 10 8 7 7 6 2 2 3 2 0 2 3 2 1 5 7 7 11 14 17 20 24 25 27 26 25 24 23 22 20 15 12 10 8 9
11 11 12 13 13 12 11 12 9 8 8 8 5 3 1 1 1 3 4 3 2 2 2 3 6 9 10 13 19 25 29 32 26 27 27 25 25 25 21 18 15 13 11
13 11 9 11 11 12 11 9 9 9 8 8 7 6 5 5 4 4 4 4 4 4 5 5 5 6 9 13 18 24 32 35 33 27 28 27 24 25 23 21 20 19 17
14 12 8 8 8 8 9 9 9 9 8 7 5 6 6 6 5 5 5 4 4 6 7 8 10 9 9 9 11 17 25 33 33 28 25 28 27 25 24 22 22 19 17
15 11 6 5 6 7 8 8 9 9 9 8 7 6 5 4 4 5 6 6 6 8 10 11 11 11 10 11 12 11 15 22 32 28 20 23 25 28 25 18 21 23 20
14 9 4 2 3 5 5 5 6 7 7 8 8 7 6 6 6 5 5 5 5 7 8 9 10 12 13 12 13 14 13 15 28 27 26 20 22 24 26 26 23 23 23
Wind_Direction
236 237 237 241 244 244 246 249 249 251 242 240 247 250 262 277 296 302 302 316 321 333 338 332 330 329 336 331 332 324 306 316 289 205 194 249 255 319 352 337 337 343 352
241 241 244 248 249 249 251 251 249 249 247 240 244 252 252 271 287 299 293 301 311 307 332 330 327 328 336 336 339 334 321 305 286 232 192 235 270 80 360 342 342 351 2
239 246 252 252 253 256 254 253 249 249 247 246 249 253 258 269 281 289 283 286 295 297 318 322 322 329 332 342 344 347 7 350 289 280 158 178 136 57 355 347 356 2 26
238 243 254 260 260 258 261 257 250 250 249 248 252 257 262 268 275 277 276 278 285 289 311 312 317 325 329 346 353 359 13 2 329 342 116 133 110 125 357 5 12 34 46
221 238 247 256 262 263 258 263 255 249 250 251 252 254 259 262 263 265 271 275 283 276 301 303 310 316 331 354 6 13 7 353 336 346 178 159 142 159 351 16 21 41 53
229 236 244 260 267 268 263 259 263 253 251 253 254 256 258 258 259 261 266 269 277 279 295 291 296 303 332 0 20 28 23 18 4 351 171 157 152 164 92 350 343 2 70
258 253 282 269 290 267 264 254 259 258 256 256 258 260 261 260 261 259 259 262 269 278 282 284 285 278 319 353 30 35 27 33 41 68 111 129 134 133 49 340 12 85 96
282 277 273 286 301 254 256 255 248 255 253 257 260 262 265 263 261 259 263 256 261 269 270 273 275 261 266 327 39 39 38 39 61 96 117 125 123 112 79 28 102 107 98
283 273 269 272 284 275 254 254 248 251 253 258 262 262 261 264 258 251 256 256 254 257 258 255 259 240 256 239 96 52 42 41 46 81 125 122 121 113 49 70 137 111 111
290 283 263 272 285 317 260 258 254 243 250 257 260 262 263 256 254 249 248 251 248 248 241 247 244 228 251 237 213 72 40 42 55 71 100 128 119 112 68 111 134 111 105
288 284 279 274 262 280 250 264 263 267 267 263 261 259 259 257 252 249 252 255 250 249 247 245 239 223 227 231 212 192 37 36 54 62 77 101 116 137 131 97 158 153 15
300 303 286 269 245 250 248 249 264 262 272 265 253 254 252 253 252 244 249 250 247 247 255 250 238 223 218 223 211 205 202 34 56 54 61 89 121 156 150 145 147 159 151
278 277 284 287 237 251 269 261 282 281 274 265 251 246 244 248 243 241 248 250 244 244 251 251 237 224 218 216 211 217 217 218 78 49 53 79 109 137 151 164 155 159 156
280 263 272 281 266 254 259 267 242 247 250 248 257 250 247 237 243 246 246 240 237 235 236 221 223 217 220 217 214 211 219 213 212 64 47 77 103 123 132 157 164 143 163
285 280 281 278 269 260 253 246 243 241 256 268 262 251 250 253 254 251 249 249 241 237 235 217 219 212 214 214 216 219 213 206 214 206 166 88 128 122 128 135 180 176 175
287 273 279 273 268 250 243 242 229 232 251 257 269 257 251 249 250 251 248 242 241 233 232 229 226 223 219 217 217 214 213 208 210 212 214 195 141 139 134 139 155 185 185
283 285 273 259 244 246 245 253 240 231 240 248 259 259 259 259 258 256 254 249 237 231 229 238 234 228 223 219 218 219 217 209 211 218 210 211 177 164 149 154 158 175 168
278 280 279 271 256 239 233 236 221 232 236 258 275 291 279 276 273 271 267 258 247 239 235 231 236 231 224 220 218 220 214 212 213 214 207 210 203 190 166 162 159 167 171
280 266 273 269 260 249 228 222 227 231 246 282 301 318 295 267 352 243 240 240 247 248 237 234 235 232 226 225 221 217 214 217 219 215 209 213 213 201 188 169 166 166 174
284 268 262 260 261 263 257 256 252 247 252 267 282 291 245 200 179 101 105 145 197 234 234 241 250 231 226 228 224 214 211 212 221 217 219 219 223 217 201 196 174 165 155
289 272 259 255 253 258 254 256 254 242 258 264 273 353 18 144 158 35 24 41 71 158 223 214 220 227 221 217 211 207 208 211 219 219 222 227 227 225 213 214 205 184 178
298 279 269 258 253 252 246 242 240 238 241 246 239 211 227 261 224 259 251 247 271 294 251 239 225 219 218 217 213 207 208 208 211 218 222 225 223 224 224 219 219 215 208
321 294 267 254 246 242 234 233 222 223 228 234 231 222 217 221 215 228 241 254 256 247 254 247 252 237 228 229 230 221 216 214 209 217 222 228 228 219 223 224 225 226 229
338 308 273 249 241 233 224 215 212 212 214 216 210 216 218 221 219 230 239 248 269 267 264 248 240 248 255 248 241 233 228 226 212 212 226 227 231 232 223 228 228 230 238
340 318 291 253 239 224 210 192 190 195 198 194 192 202 207 199 205 206 208 223 240 251 258 262 260 261 252 257 250 248 241 222 210 216 226 228 226 228 225 219 236 233 236
344 345 340 292 201 189 175 166 167 173 178 174 176 183 179 181 189 209 216 223 233 242 245 251 253 254 255 250 249 245 240 234 226 219 217 232 220 226 225 225 225 238 240
Height
1537 1539 1541 1542 1543 1545 1546 1548 1549 1550 1551 1553 1555 1555 1555 1554 1552 1551 1550 1549 1548 1546 1544 1540 1537 1534 1532 1529 1526 1523 1521 1520 1519 1519 1520 1519 1519 1518 1517 1515 1513 1509 1506
1534 1535 1537 1540 1541 1542 1543 1543 1545 1546 1547 1547 1549 1551 1552 1552 1550 1549 1548 1547 1546 1545 1544 1541 1538 1534 1532 1529 1526 1523 1522 1520 1518 1518 1519 1519 1519 1518 1518 1516 1513 1509 1506
1527 1530 1532 1535 1536 1538 1539 1541 1542 1543 1543 1544 1544 1546 1548 1548 1548 1547 1546 1545 1544 1544 1543 1541 1538 1535 1532 1529 1526 1523 1521 1520 1518 1518 1519 1518 1519 1519 1518 1516 1513 1510 1508
1523 1524 1526 1528 1531 1533 1535 1537 1539 1540 1540 1541 1541 1542 1544 1545 1545 1544 1544 1544 1544 1544 1542 1540 1538 1535 1532 1529 1527 1524 1522 1521 1519 1519 1518 1519 1520 1520 1519 1517 1516 1512 1510
1518 1520 1521 1523 1524 1526 1529 1532 1533 1535 1536 1537 1537 1537 1539 1540 1541 1541 1541 1542 1541 1542 1541 1539 1537 1534 1533 1531 1528 1525 1523 1521 1520 1520 1520 1520 1521 1521 1520 1519 1517 1515 1513
1510 1514 1516 1518 1519 1521 1523 1526 1529 1530 1531 1533 1533 1533 1534 1535 1536 1537 1538 1539 1539 1538 1538 1537 1536 1534 1533 1532 1529 1526 1525 1523 1521 1520 1520 1521 1523 1522 1521 1520 1519 1519 1516
1509 1509 1511 1514 1513 1515 1517 1520 1523 1524 1526 1527 1528 1529 1529 1530 1532 1533 1533 1535 1536 1535 1535 1536 1536 1534 1534 1533 1531 1529 1527 1525 1522 1521 1521 1521 1523 1524 1523 1523 1521 1520 1519
1506 1508 1509 1508 1507 1507 1509 1512 1515 1517 1518 1521 1523 1524 1525 1525 1528 1529 1529 1530 1532 1532 1533 1534 1534 1533 1533 1533 1533 1531 1528 1527 1524 1523 1524 1524 1525 1525 1525 1525 1524 1524 1523
1503 1504 1505 1506 1504 1504 1503 1509 1510 1513 1514 1516 1518 1519 1519 1520 1523 1525 1524 1526 1528 1529 1531 1531 1532 1532 1533 1533 1534 1532 1529 1528 1526 1525 1525 1526 1527 1527 1527 1527 1527 1527 1527
1501 1501 1502 1502 1500 1503 1499 1498 1507 1509 1509 1507 1511 1513 1514 1514 1515 1518 1519 1521 1523 1525 1526 1528 1529 1532 1532 1533 1533 1532 1531 1530 1528 1527 1527 1528 1529 1529 1529 1529 1530 1531 1531
1499 1496 1493 1491 1492 1496 1502 1467 1495 1501 1503 1501 1506 1508 1511 1509 1510 1513 1516 1517 1519 1522 1523 1525 1526 1528 1529 1530 1532 1532 1532 1531 1531 1530 1530 1530 1530 1531 1531 1531 1531 1533 1534
1499 1499 1498 1495 1495 1498 1502 1500 1499 1499 1497 1499 1502 1504 1504 1504 1507 1509 1513 1514 1515 1519 1521 1522 1524 1524 1526 1528 1531 1531 1532 1532 1532 1532 1532 1531 1531 1532 1533 1532 1534 1534 1536
1501 1500 1499 1497 1494 1492 1490 1488 1485 1488 1492 1493 1498 1498 1498 1500 1503 1507 1510 1512 1512 1514 1518 1520 1522 1523 1524 1526 1530 1532 1533 1533 1534 1534 1533 1532 1532 1531 1532 1533 1533 1534 1537
1500 1498 1498 1496 1495 1493 1491 1489 1492 1491 1494 1492 1492 1493 1496 1497 1499 1502 1505 1508 1509 1511 1513 1516 1519 1521 1522 1525 1529 1530 1532 1534 1534 1535 1534 1534 1533 1533 1533 1535 1535 1536 1537
1496 1495 1494 1494 1494 1492 1492 1492 1492 1492 1492 1489 1489 1490 1493 1493 1495 1498 1501 1503 1504 1507 1510 1512 1514 1516 1517 1520 1524 1527 1530 1532 1533 1535 1535 1535 1535 1535 1536 1536 1536 1536 1538
1494 1492 1491 1490 1491 1490 1490 1490 1489 1490 1489 1488 1489 1489 1490 1491 1493 1494 1496 1498 1500 1502 1504 1506 1508 1510 1512 1515 1519 1523 1527 1530 1532 1533 1535 1536 1536 1536 1537 1537 1538 1538 1539
1493 1491 1490 1489 1489 1489 1488 1487 1487 1486 1486 1487 1488 1488 1490 1488 1489 1489 1492 1493 1494 1496 1498 1501 1503 1505 1508 1511 1515 1518 1522 1527 1530 1532 1535 1536 1537 1537 1536 1537 1538 1539 1540
1490 1490 1489 1488 1487 1487 1487 1487 1486 1486 1486 1485 1486 1487 1486 1485 1485 1485 1486 1488 1489 1490 1493 1495 1498 1501 1505 1509 1512 1515 1519 1522 1525 1529 1533 1535 1536 1537 1537 1538 1538 1539 1540
1486 1487 1485 1485 1484 1485 1486 1486 1486 1485 1485 1484 1484 1485 1484 1485 1483 1482 1483 1485 1485 1487 1489 1492 1492 1497 1502 1505 1507 1512 1516 1520 1523 1526 1530 1533 1535 1536 1538 1538 1539 1540 1541
1484 1484 1484 1483 1482 1482 1483 1483 1483 1483 1482 1483 1483 1483 1482 1481 1483 1483 1483 1483 1483 1486 1488 1490 1491 1494 1497 1500 1503 1507 1511 1516 1519 1523 1526 1530 1533 1535 1537 1539 1540 1541 1541
1483 1482 1481 1481 1480 1480 1480 1480 1480 1479 1479 1479 1478 1479 1481 1481 1483 1484 1486 1484 1484 1486 1487 1487 1488 1491 1493 1495 1498 1503 1507 1510 1515 1519 1521 1526 1529 1533 1535 1539 1540 1542 1543
1482 1480 1479 1479 1478 1478 1477 1478 1477 1477 1477 1478 1478 1479 1482 1483 1483 1484 1485 1485 1485 1485 1486 1487 1488 1490 1492 1494 1496 1498 1501 1502 1509 1513 1518 1520 1524 1529 1533 1536 1539 1541 1542
1481 1479 1477 1476 1476 1475 1475 1475 1475 1476 1477 1478 1478 1479 1480 1482 1482 1483 1483 1484 1485 1484 1485 1485 1487 1488 1489 1490 1492 1493 1496 1499 1503 1508 1513 1517 1520 1523 1528 1532 1535 1537 1540
1481 1477 1476 1474 1474 1473 1472 1473 1474 1475 1477 1477 1477 1478 1479 1480 1480 1481 1483 1483 1483 1483 1483 1484 1485 1486 1487 1488 1488 1488 1490 1492 1493 1504 1508 1511 1515 1519 1523 1527 1530 1534 1536
1479 1477 1474 1473 1473 1472 1473 1472 1473 1475 1476 1475 1475 1477 1478 1478 1480 1480 1481 1481 1481 1482 1482 1483 1483 1484 1484 1485 1485 1485 1486 1489 1493 1498 1501 1504 1508 1513 1519 1522 1524 1529 1532
1482 1477 1474 1473 1472 1471 1471 1471 1473 1474 1475 1475 1475 1476 1476 1477 1478 1478 1479 1479 1480 1480 1481 1481 1481 1481 1481 1481 1482 1482 1484 1485 1487 1492 1496 1499 1503 1507 1513 1517 1520 1521 1526